OPS 4682 DEB, 20131

Orbit data source: Space-Track

OPS 4682 DEB, 20131 is space debris in LEO originally from a launch on Sat, 03 Apr 1965 UTC launched from the Air Force Western Test Range (AFWTR). Debris objects in space refer to the collection of defunct objects orbiting the Earth. Examples of debris include non-operational satellites, rocket bodies, and fragments generated from explosions, collisions, or faulty payload assembly.

Loading next visibility...
Identifier
20131, 1965-027BD
Orbit
LEO
Country
Flag of USUS
Related business
Manufacturer
Unknown
Mission
Spacecraft
Bus & Motor
Unknown
Mass
Unknown
Launch date (UTC)
1965-04-03 (61 years ago)
Launch vehicle
Unknown
Launch site
Air Force Western Test Range (AFWTR)
Object type
Payload
Rocket body
Debris
Shape & HBR
Unknown shape, 0.1 m
Radar Cross Section
Medium (>0.1 m² and <1 m²)

Expand to show TLE details & history
Last TLE update: 6 days ago

TLE from 6 days ago
0 OPS 4682 DEB
1 20131U 65027BD  26257.77751422  .00000476  00000-0  15435-2 0  9991
2 20131  90.2470   6.5862 0034197  80.9293  72.1289 13.00400680776611
Epoch: 2026-09-14T18:39Z
TLE epoch observation values (Epoch: 2026-09-14T18:39:37.228Z)
Latitude
26.60041°
Longitude
-86.94879°
Altitude
1,255.821 km
Speed
7.233 km/s
True Right ascension
12h 26m 50s
True Declination
26° 28' 19"
Sunlit
Object was in daylight at epoch
Visualization orbit readout
Latitude
Unknown
Longitude
Unknown
Altitude
Unknown
Speed
Unknown
Apparent Right ascension
Unknown
Apparent Declination
Unknown
Sunlit
N/A
Visualization observer readout
Local Sidereal Time
07:58:23
Azimuth
Unknown
Elevation
Unknown
Doppler factor
Unknown
Orbital elements
Apogee altitude
1,283.756 km
Perigee altitude
1,231.531 km
Semi-major axis
7,635.781 km
Eccentricity
0.00342
Inclination
90.247°
RAAN
6.5862°
Arg. of periapsis
80.9293°
True anomaly
72.50235°
Mean anomaly
72.1289°
Eccentric anomaly
72.31558°
Mean motion
3.25284 °/min
Orbital period
110.67 mins
BSTAR
0.0015435
Loading maneuver chart data...
Computing Atmospheric mass density...
Loading historical data...
Loading historical data...
Loading historical data...
Loading historical data...
Loading historical data...
Loading historical data...
Loading historical data...

Documentation

Showing up to 5 results
|